FENGYUN 1C DEB

Satellite information

Favourite Embed

Satellite Type and Status

DEBRISIN ORBIT

Key statistics

Satellite FENGYUN 1C DEB at a glance.

Uptime

9662

Days in orbit

Revolutions

≈ 14.1

Per day

Orbit

SSO

Sun Synchronous Orbit

Inclination

99.5

Latest

Satellite identification and parameters

Extended collection of information and parameters for FENGYUN 1C DEB.

Object identification

Identified? True

Debris? True

Object name: FENGYUN 1C DEB

International designator: 1999-025CXR

Object number (NORAD): 32324

Object ID (CCSDS): 32324

Country: PEOPLES REPUBLIC OF CHINA (PRC)

Current information (Y/N): Y

RCS size: SMALL

Orbital parameters

Period: 102.201 minutes

Inclination: 99.5329 deg

SMA: 7240.957 km

Apoapsis: 899.841 km

Periapsis: 825.802 km

RAAN: 29.09 deg

Eccentricy: 0.00511251

Argument of periapsis: 177.5338 deg

Mean anomaly: 182.6091 deg

Mean motion: 14.08992967 rev/day

Mean motion (dot): 0.00001395 rev/day2

B* drag term: 0.00082369493 1/REarth

Two-line elements (TLE)

Creation date: Oct. 18, 2025, 2:17 a.m.

Reference frame: TEME

Reference center: EARTH

Epoch: Oct. 17, 2025, 1:23 p.m. UTC

TLE line 0: 0 FENGYUN 1C DEB

TLE line 1: 1 32324U 99025CXR 25290.55826163 .00001395 00000-0 82369-3 0 9992

TLE line 2: 2 32324 99.5329 29.0900 0051125 177.5338 182.6091 14.08992967632071

Live tracking on map

Real-time ground track for satellite FENGYUN 1C DEB.

In-orbit conjunctions

A list of the most updated potential collisions computed for object FENGYUN 1C DEB.

Target Orbit TCA Probability of collision Miss distance Type
CZ-6A DEB LEO 2025-02-27 16:45:22 0.0006683169 335.0 (m) DEBRIS
COSMOS 1275 DEB LEO 2025-01-09 16:52:59 0.0001460373 168.0 (m) DEBRIS
CZ-6A DEB LEO 2024-12-25 23:54:32 0.0001116873 981.0 (m) DEBRIS
THOR BURNER 2 R/B SSO 2024-10-22 15:50:20 0.0001364885 331.0 (m) ROCKET BODY

Associated space launch

Chinese polar orbiting meteorological satellite

FENGYUN 1C DEB was lifted into orbit during the mission ‘Long March 4B | Feng Yun 1C’, on board a Long March 4B space rocket.

The launch took place on May 10, 1999, 1:33 a.m. from Launch Complex 7.

For more information about the launch, click the button.

Launch to space Long March 4B | Feng Yun 1C
Long March 4B | Feng Yun 1C

Agency: N/A

Status: Launch Successful

Launch date: May 10, 1999, 1:33 a.m. UTC

Rocket: Long March 4B

Launch pad: Launch Complex 7

Location: Taiyuan Satellite Launch Center, People's Republic of China

...

Latest news about this satellite

There are no fresh news available about this satellite. Check back as we update our databases every day.


Newsletter sign-up

Weekly statistics, charts and insights to help you stay on top of the space industry.